Temp
6 6 6 6 6 6 6 6 6 6 6 6 5 5 5 5 5 5 5 5 5 5 4 5 5 5 5 4 4 4 5 5 5 5 4 5 5 5 6 5 5 5 5
6 6 6 6 5 5 5 6 6 6 6 6 5 5 5 5 5 4 4 3 4 4 4 4 4 4 4 4 4 4 4 4 4 4 4 4 4 5 5 5 5 5 5
6 6 6 6 5 5 5 5 5 5 6 6 6 5 5 4 3 3 2 2 3 3 4 4 4 4 4 4 4 4 4 4 4 4 4 4 4 4 4 4 5 5 5
5 6 6 5 5 5 5 5 5 6 5 5 5 5 4 3 3 2 2 2 3 3 4 4 4 3 3 4 4 4 3 4 3 3 3 3 4 3 4 4 4 4 4
5 5 5 5 5 5 5 5 4 5 4 5 5 4 3 2 2 1 1 1 2 3 2 2 2 2 3 3 3 3 3 2 3 3 4 2 3 3 3 4 4 4 4
5 5 4 4 5 4 4 4 4 4 4 4 3 3 2 1 1 1 0 1 1 2 2 2 1 2 1 3 4 3 3 3 3 3 3 3 3 2 2 2 3 3 3
5 5 4 5 4 4 4 4 4 4 3 3 3 2 1 1 1 0 0 1 1 1 1 1 1 1 2 1 2 1 1 2 2 2 2 2 2 3 2 2 3 2 2
4 5 4 4 3 4 4 4 3 3 3 2 2 1 0 -1 -0 -0 -0 -0 -0 -0 1 1 1 1 0 1 0 1 0 1 1 1 1 2 1 2 2 1 2 2 2
4 4 4 4 4 4 3 3 3 2 2 2 2 1 0 -0 -1 -1 -0 -0 -0 -0 -0 -0 0 1 1 1 1 1 2 1 0 0 1 1 1 1 2 2 2 2 2
4 3 3 3 3 3 2 2 2 1 1 1 1 0 0 -0 -0 -0 -2 -2 -0 -1 -0 0 1 0 1 2 1 1 0 1 1 -0 0 0 0 1 1 1 2 2 2
3 3 3 2 2 1 1 1 1 1 0 0 0 -0 -1 -1 -0 -1 0 -1 -1 -1 -2 -2 -0 0 -0 -1 -0 -1 -1 0 0 -0 -0 -0 -0 1 1 0 1 1 2
3 2 2 1 1 1 1 0 0 0 0 0 -0 -0 -0 -1 -1 -1 -1 -1 -1 -1 -1 -1 -1 -1 -1 -1 -1 -2 -1 -1 -1 -1 -0 0 -0 0 0 0 1 2 2
2 1 1 1 1 1 0 0 -0 -0 -0 -0 -1 -1 -1 -1 -1 -1 -2 -2 -1 -2 -2 -2 -2 -1 -1 -1 -1 -1 -1 -1 -1 -1 -1 -1 -1 -0 -0 0 1 1 1
1 1 1 1 0 0 -0 -1 -1 -1 -1 -1 -1 -1 -1 -2 -2 -2 -2 -2 -2 -2 -2 -3 -3 -2 -2 -2 -3 -2 -2 -2 -2 -2 -2 -2 -1 -1 -0 -0 0 0 1
0 0 0 0 -0 -0 -1 -1 -1 -1 -1 -1 -1 -1 -2 -2 -2 -3 -3 -3 -3 -3 -3 -3 -3 -3 -3 -3 -3 -3 -3 -3 -3 -3 -3 -2 -2 -2 -2 -1 -1 -1 -1
0 -0 -0 -0 -0 -1 -1 -1 -1 -1 -1 -1 -2 -2 -2 -3 -3 -3 -4 -4 -4 -4 -4 -4 -4 -4 -4 -3 -3 -3 -3 -4 -4 -4 -3 -3 -3 -3 -2 -2 -3 -2 -2
-0 -0 -1 -1 -1 -1 -1 -1 -2 -2 -2 -2 -2 -2 -2 -3 -3 -4 -4 -4 -5 -4 -4 -5 -5 -5 -5 -5 -4 -4 -4 -3 -4 -4 -4 -4 -4 -4 -4 -3 -4 -3 -3
-1 -1 -1 -1 -1 -2 -2 -2 -2 -3 -3 -3 -3 -3 -3 -3 -4 -4 -5 -5 -5 -5 -5 -5 -6 -6 -6 -6 -5 -5 -5 -4 -4 -4 -4 -4 -4 -4 -4 -4 -4 -4 -4
-1 -1 -2 -2 -2 -2 -2 -3 -3 -3 -3 -3 -3 -3 -4 -4 -4 -5 -5 -5 -6 -6 -6 -6 -6 -6 -5 -5 -5 -5 -5 -5 -5 -5 -5 -4 -4 -4 -4 -4 -4 -4 -4
-2 -2 -2 -3 -3 -3 -3 -3 -3 -4 -4 -4 -4 -4 -4 -5 -5 -5 -6 -6 -6 -7 -7 -7 -6 -6 -6 -6 -5 -5 -5 -5 -5 -6 -6 -5 -5 -5 -5 -4 -4 -4 -4
-3 -3 -3 -3 -3 -3 -4 -4 -4 -4 -4 -4 -4 -5 -5 -5 -6 -6 -6 -7 -7 -7 -7 -7 -6 -6 -6 -6 -6 -6 -5 -5 -5 -5 -5 -5 -6 -6 -5 -5 -5 -5 -5
-3 -3 -4 -4 -4 -4 -4 -4 -5 -5 -5 -5 -5 -5 -5 -6 -6 -6 -7 -7 -8 -8 -8 -7 -7 -7 -7 -7 -7 -7 -6 -6 -6 -7 -6 -6 -6 -6 -6 -6 -6 -6 -5
-4 -4 -4 -5 -5 -5 -5 -5 -5 -5 -5 -6 -6 -6 -6 -6 -7 -7 -7 -8 -8 -8 -8 -8 -7 -7 -7 -8 -8 -8 -8 -7 -7 -7 -7 -7 -7 -7 -7 -7 -7 -7 -7
-4 -5 -5 -5 -5 -5 -5 -6 -6 -6 -6 -6 -6 -7 -7 -7 -7 -7 -8 -8 -8 -8 -9 -8 -8 -8 -8 -9 -9 -9 -9 -9 -8 -9 -10 -9 -9 -9 -8 -8 -9 -9 -9
-5 -5 -5 -6 -6 -6 -6 -6 -6 -6 -7 -7 -7 -7 -8 -8 -8 -8 -8 -9 -9 -9 -9 -9 -9 -9 -9 -9 -10 -9 -10 -10 -10 -10 -11 -11 -11 -11 -11 -10 -11 -11 -11
-4 -5 -6 -6 -6 -7 -7 -7 -7 -7 -7 -7 -8 -8 -8 -8 -8 -9 -9 -9 -9 -9 -9 -9 -9 -9 -10 -10 -11 -11 -11 -11 -11 -11 -12 -13 -13 -13 -12 -11 -12 -12 -12
Height
3129 3128 3126 3124 3122 3121 3120 3118 3117 3116 3116 3116 3115 3114 3114 3115 3116 3116 3116 3116 3116 3116 3115 3116 3116 3117 3117 3117 3117 3117 3118 3118 3119 3120 3121 3121 3122 3123 3123 3123 3124 3125 3126
3124 3123 3121 3118 3117 3115 3113 3112 3110 3109 3108 3108 3106 3106 3104 3104 3105 3106 3107 3108 3109 3109 3109 3108 3108 3109 3110 3110 3110 3110 3110 3111 3112 3113 3115 3116 3116 3117 3118 3119 3120 3120 3121
3120 3118 3117 3115 3113 3111 3109 3107 3105 3104 3102 3101 3099 3097 3095 3095 3095 3096 3097 3099 3101 3102 3102 3101 3101 3100 3101 3101 3102 3101 3102 3103 3104 3105 3107 3108 3109 3111 3112 3113 3114 3115 3115
3116 3114 3113 3111 3109 3107 3105 3103 3101 3099 3097 3096 3093 3090 3087 3087 3087 3087 3087 3091 3091 3088 3093 3089 3085 3089 3090 3093 3094 3092 3091 3091 3094 3097 3099 3101 3100 3104 3105 3107 3108 3109 3109
3112 3110 3108 3106 3104 3103 3101 3099 3097 3094 3092 3089 3085 3082 3080 3080 3080 3080 3079 3080 3082 3084 3084 3077 3072 3072 3077 3079 3080 3078 3083 3082 3088 3090 3091 3092 3094 3096 3095 3098 3100 3100 3101
3107 3105 3103 3101 3100 3098 3096 3094 3092 3089 3085 3081 3079 3076 3074 3074 3074 3074 3072 3073 3074 3074 3075 3073 3071 3073 3074 3075 3076 3078 3078 3081 3084 3084 3084 3086 3087 3088 3089 3089 3091 3091 3093
3103 3101 3100 3098 3098 3096 3093 3090 3087 3084 3080 3077 3074 3071 3069 3069 3069 3068 3067 3067 3067 3068 3069 3067 3068 3067 3068 3069 3074 3074 3072 3073 3074 3075 3076 3077 3079 3079 3081 3082 3083 3082 3086
3100 3099 3097 3095 3094 3091 3088 3085 3082 3078 3075 3073 3070 3067 3066 3066 3064 3062 3061 3061 3061 3061 3060 3061 3062 3061 3061 3063 3064 3065 3065 3065 3065 3067 3068 3069 3071 3072 3072 3071 3072 3076 3075
3097 3096 3094 3093 3091 3087 3084 3081 3079 3076 3072 3069 3067 3065 3064 3063 3061 3058 3056 3055 3055 3055 3053 3052 3050 3053 3054 3055 3054 3057 3056 3055 3056 3057 3059 3060 3061 3062 3062 3061 3064 3066 3068
3095 3093 3091 3089 3085 3082 3080 3078 3076 3074 3071 3068 3065 3062 3060 3058 3057 3056 3053 3049 3049 3048 3047 3046 3044 3045 3045 3043 3042 3042 3043 3043 3044 3046 3047 3048 3049 3048 3049 3051 3054 3055 3057
3091 3089 3087 3084 3082 3080 3078 3076 3073 3071 3068 3066 3063 3060 3057 3054 3052 3051 3049 3047 3045 3042 3041 3037 3036 3035 3035 3034 3033 3034 3035 3036 3036 3036 3035 3035 3035 3035 3038 3039 3040 3042 3044
3087 3085 3083 3081 3079 3076 3075 3073 3070 3067 3065 3062 3060 3057 3054 3051 3047 3045 3042 3041 3040 3039 3036 3032 3030 3029 3027 3027 3026 3026 3026 3026 3026 3025 3025 3024 3025 3024 3025 3026 3024 3027 3029
3084 3081 3079 3078 3076 3074 3071 3068 3065 3062 3059 3057 3054 3052 3049 3046 3043 3039 3036 3034 3032 3032 3029 3027 3024 3022 3022 3020 3018 3019 3018 3017 3017 3016 3015 3015 3014 3013 3013 3013 3013 3015 3015
3079 3077 3075 3073 3071 3069 3066 3064 3061 3058 3055 3052 3050 3047 3043 3040 3036 3034 3030 3026 3024 3024 3023 3017 3013 3011 3011 3011 3010 3009 3008 3007 3006 3004 3003 3002 3001 3001 3001 3000 2999 3001 3002
3075 3074 3072 3069 3067 3065 3062 3059 3056 3053 3050 3047 3044 3040 3036 3033 3029 3026 3023 3020 3017 3014 3017 3011 3007 3003 3002 3001 3000 2999 2998 2997 2996 2994 2993 2992 2990 2988 2988 2987 2987 2988 2990
3070 3068 3067 3065 3063 3060 3057 3053 3050 3048 3045 3042 3039 3035 3030 3026 3022 3018 3015 3012 3010 3007 3008 3005 3002 2997 2994 2992 2990 2990 2988 2987 2986 2985 2983 2982 2981 2980 2979 2978 2977 2978 2977
3065 3063 3061 3059 3056 3054 3051 3049 3045 3042 3039 3036 3032 3029 3025 3020 3015 3011 3008 3004 3001 2998 2996 2998 2993 2992 2989 2987 2984 2983 2981 2980 2979 2977 2975 2972 2971 2970 2969 2968 2968 2966 2966
3058 3056 3054 3053 3051 3048 3045 3042 3039 3036 3033 3030 3027 3023 3019 3014 3010 3005 3001 2996 2993 2989 2987 2988 2986 2984 2982 2979 2977 2975 2973 2971 2970 2968 2966 2963 2962 2960 2959 2959 2958 2956 2955
3052 3050 3048 3046 3043 3041 3038 3035 3032 3029 3026 3023 3020 3016 3012 3008 3004 2999 2995 2991 2987 2983 2980 2977 2979 2977 2974 2971 2970 2968 2966 2964 2962 2960 2958 2955 2954 2952 2950 2948 2946 2945 2943
3044 3042 3040 3038 3035 3033 3031 3028 3025 3022 3019 3016 3013 3009 3005 3000 2996 2991 2987 2983 2979 2975 2973 2970 2968 2967 2966 2963 2960 2957 2957 2954 2953 2951 2948 2946 2945 2943 2941 2937 2935 2933 2931
3037 3035 3033 3030 3028 3025 3023 3020 3017 3015 3012 3008 3005 3001 2997 2992 2988 2984 2980 2976 2972 2969 2966 2963 2961 2958 2956 2953 2950 2949 2945 2943 2943 2941 2939 2936 2935 2933 2931 2928 2925 2922 2919
3030 3028 3025 3023 3020 3017 3015 3012 3009 3007 3004 3001 2998 2994 2990 2985 2980 2976 2972 2968 2964 2961 2958 2955 2953 2950 2947 2943 2939 2936 2934 2931 2930 2931 2926 2924 2923 2920 2917 2915 2914 2911 2908
3022 3020 3018 3015 3013 3010 3007 3004 3002 3000 2998 2995 2991 2986 2982 2976 2972 2967 2963 2959 2957 2953 2950 2947 2944 2942 2938 2934 2930 2926 2923 2920 2917 2915 2912 2909 2910 2906 2904 2902 2900 2896 2894
3014 3012 3010 3007 3005 3002 2999 2997 2994 2992 2990 2986 2982 2978 2973 2968 2963 2958 2954 2951 2948 2946 2943 2939 2936 2933 2929 2925 2921 2916 2911 2908 2905 2902 2898 2893 2894 2891 2889 2888 2886 2883 2879
3005 3003 3001 2999 2997 2994 2992 2988 2985 2983 2981 2978 2974 2969 2965 2960 2955 2950 2945 2942 2940 2938 2934 2932 2929 2925 2921 2917 2912 2907 2903 2897 2893 2890 2886 2880 2878 2874 2873 2873 2872 2870 2867
2995 2994 2992 2991 2988 2986 2983 2981 2977 2974 2972 2970 2966 2962 2957 2952 2947 2942 2937 2934 2932 2929 2926 2923 2921 2917 2912 2908 2904 2899 2894 2888 2883 2878 2876 2869 2862 2861 2855 2857 2858 2856 2854
Wind_Speed
27 27 28 29 29 29 29 30 31 31 31 33 35 38 40 42 44 41 39 36 35 34 34 35 35 33 31 30 30 30 29 29 28 27 26 24 22 21 20 20 21 21 21
24 25 27 27 25 25 25 26 26 26 26 27 29 32 38 41 45 47 46 40 35 36 34 34 34 34 33 32 32 32 32 32 31 29 29 30 28 26 23 22 22 22 23
25 24 23 21 22 25 24 26 27 26 25 27 31 32 35 37 38 44 47 45 42 40 36 38 37 34 33 32 33 36 35 33 28 29 31 33 32 31 29 26 26 24 24
25 23 22 22 23 22 23 24 25 25 27 27 26 29 31 32 37 36 40 44 32 40 39 44 45 40 35 29 34 35 29 30 27 29 26 26 27 28 34 32 30 28 27
21 22 21 20 20 21 23 21 19 20 21 20 24 24 23 26 30 32 34 35 39 45 42 43 25 37 29 31 37 32 35 27 29 28 44 39 38 32 30 34 37 38 34
20 19 19 17 19 20 19 19 18 18 20 21 22 23 22 21 25 26 27 31 33 40 46 47 41 30 33 41 41 43 36 34 35 33 31 32 38 34 36 35 31 28 34
18 18 17 17 18 18 17 17 16 16 19 19 20 19 19 19 22 22 26 27 30 30 38 41 34 37 43 40 40 45 38 38 39 36 35 36 34 36 34 36 36 39 35
16 17 17 15 14 13 12 12 13 15 17 18 19 17 13 13 17 21 24 28 30 32 36 36 48 49 41 46 46 50 46 46 43 42 41 42 40 39 40 41 40 39 37
14 15 14 13 13 12 12 13 14 15 17 20 20 18 14 13 12 17 23 26 29 30 31 35 35 36 37 37 38 31 36 36 48 48 48 46 47 46 48 48 47 45 43
13 13 13 14 13 13 12 13 14 15 17 19 20 20 19 19 20 21 21 24 23 26 32 34 39 35 34 36 38 39 38 41 44 51 54 52 51 53 52 50 51 49 50
15 16 16 15 14 12 13 13 14 16 18 19 19 21 22 24 24 24 23 23 24 26 27 30 33 35 33 34 36 35 36 42 42 42 45 50 60 61 54 55 57 58 55
18 18 17 16 15 14 13 14 16 18 20 21 22 23 24 25 27 27 27 27 27 25 26 30 31 32 33 33 37 33 36 40 41 42 43 44 45 47 49 51 53 53 53
19 19 19 19 18 17 16 17 18 19 21 22 23 24 25 26 28 29 30 30 29 27 26 29 31 32 33 34 35 36 37 37 39 40 41 42 43 44 47 47 48 45 47
21 20 21 20 20 19 19 20 21 22 23 24 25 26 27 27 28 29 30 31 30 27 27 30 32 32 32 32 34 35 37 38 39 39 40 40 41 43 45 45 47 47 47
22 22 22 22 22 22 22 23 23 24 25 26 28 28 28 29 30 30 30 29 31 29 22 27 31 33 32 32 31 31 33 34 35 37 39 41 42 43 43 45 46 46 45
23 23 23 24 24 24 24 24 24 25 26 27 29 30 31 31 31 31 30 30 30 31 27 25 27 29 30 31 32 30 31 31 31 32 34 35 36 39 41 43 43 44 45
25 25 25 25 25 26 26 26 26 26 26 27 29 31 33 33 33 32 32 32 31 31 30 23 25 24 25 26 27 27 27 27 27 27 28 29 29 30 31 33 35 37 39
27 28 28 28 27 27 27 27 27 27 27 28 30 31 32 33 34 34 33 32 32 32 33 26 24 24 25 26 26 26 26 26 27 28 30 31 33 34 35 35 36 36 37
30 30 30 29 30 29 29 29 29 28 29 29 30 32 33 33 33 33 32 32 33 32 31 30 24 26 27 28 27 28 30 32 33 32 32 31 30 32 33 34 35 37 40
32 32 32 32 32 32 32 31 30 30 30 31 31 33 34 34 34 34 32 34 33 31 30 31 31 30 29 30 33 35 35 35 34 31 33 34 33 32 34 37 39 39 39
33 34 33 33 33 33 32 32 32 31 31 32 33 34 35 35 35 34 34 34 33 30 30 31 31 32 32 33 35 36 39 38 36 36 36 36 36 37 37 37 39 41 42
35 36 35 34 34 33 33 33 32 32 32 32 33 35 36 35 35 35 34 33 32 31 30 31 32 34 35 36 39 40 41 42 42 39 42 42 40 41 42 42 41 42 45
37 36 36 35 34 34 33 33 33 32 32 32 34 36 36 36 36 34 34 32 30 30 31 32 33 34 37 38 41 43 44 45 45 44 46 47 43 45 45 44 44 44 43
38 38 37 36 36 35 35 34 33 32 32 32 35 36 36 37 37 35 34 31 30 30 31 32 35 36 38 39 42 44 46 46 47 46 46 50 47 47 47 46 44 44 43
38 38 38 37 36 36 35 35 34 33 32 33 36 37 37 37 37 35 34 31 30 30 31 32 34 36 37 38 40 43 44 46 48 48 47 49 49 50 49 47 43 42 41
38 39 38 38 37 37 37 36 35 34 33 35 37 37 35 36 36 34 33 32 31 31 32 33 33 34 35 36 37 38 40 43 46 48 46 49 52 49 53 48 44 41 40
Wind_Direction
296 297 296 295 294 293 293 292 289 286 281 276 274 273 269 265 267 268 267 267 268 268 267 266 263 262 261 261 263 263 264 263 262 261 263 264 265 264 263 261 259 258 256
299 300 298 296 295 296 295 295 294 293 290 288 281 275 270 268 264 262 262 263 268 267 266 265 263 260 259 260 261 261 261 261 263 264 263 263 261 260 259 259 259 258 257
300 299 299 297 298 297 296 297 298 297 295 294 290 287 281 275 271 265 261 266 258 266 269 265 261 257 255 255 256 257 256 255 256 259 261 259 257 256 255 256 255 254 253
297 295 296 295 299 298 300 300 297 294 292 292 300 299 292 283 274 273 264 255 256 257 257 262 251 247 243 248 253 248 249 241 240 253 260 259 257 255 255 254 254 252 252
296 294 293 297 299 296 296 297 302 303 304 310 317 314 302 287 281 279 269 262 259 255 250 265 263 239 235 237 247 262 266 273 268 274 262 284 272 270 265 254 253 249 245
296 295 295 293 296 297 296 297 299 302 311 319 320 317 309 295 293 289 277 268 261 254 257 261 268 277 268 246 255 259 264 266 269 272 271 271 268 276 275 273 259 271 253
299 299 296 295 296 303 303 302 306 314 315 320 321 319 309 296 284 283 276 272 263 268 261 265 274 273 275 264 261 257 264 267 267 265 265 265 264 265 264 265 273 275 266
300 298 295 292 296 305 312 314 315 320 318 319 327 326 315 301 282 279 277 276 273 269 263 264 271 274 279 272 267 264 268 262 264 264 263 263 263 265 269 270 269 272 273
298 293 289 290 296 309 318 320 326 333 335 332 331 327 304 294 295 292 291 275 271 276 274 273 273 275 273 277 294 279 268 277 269 263 265 262 261 262 261 264 266 268 272
296 289 285 290 297 306 313 327 334 334 334 333 331 328 320 308 296 293 294 293 282 273 274 275 275 275 273 272 267 265 263 262 265 266 261 259 256 257 259 261 266 270 270
287 285 284 288 297 311 321 326 328 328 326 321 319 317 315 311 308 304 298 290 287 282 276 272 274 274 274 272 272 273 266 268 272 272 271 269 262 262 263 266 267 270 268
280 283 292 297 300 303 304 310 317 321 322 320 317 314 310 305 302 299 295 294 293 287 282 278 275 275 277 278 275 276 274 271 270 270 270 270 271 270 268 268 268 269 267
288 289 293 297 299 301 302 307 313 317 319 319 317 315 311 307 304 302 300 296 291 287 284 282 281 280 277 277 277 275 273 274 273 273 273 271 270 270 269 269 270 271 270
288 292 292 293 293 293 297 305 313 319 322 321 319 318 316 313 309 305 302 299 296 294 292 288 285 284 281 280 279 279 279 277 277 277 277 277 276 274 274 274 272 271 270
294 296 295 292 292 295 300 307 311 317 320 320 319 318 318 317 314 310 306 301 298 297 293 288 289 288 288 286 282 280 280 281 281 280 280 279 279 280 279 278 277 276 274
289 290 292 295 296 296 297 301 307 312 315 316 318 319 319 318 316 312 309 305 302 298 296 287 284 286 287 288 287 286 285 284 282 281 280 280 279 279 279 279 278 277 276
289 291 292 293 293 294 295 299 302 306 310 313 315 318 318 317 314 311 309 306 304 301 299 294 289 285 284 284 283 283 281 280 281 283 284 285 285 284 283 283 284 284 281
288 289 291 293 294 294 293 295 298 302 306 310 314 317 317 315 313 311 309 305 303 300 298 295 290 288 288 286 284 284 284 283 282 282 283 285 287 288 287 286 286 286 285
290 291 292 294 294 294 293 293 296 300 304 308 312 314 314 314 312 310 306 303 300 297 294 293 291 292 292 288 285 285 286 286 284 283 281 280 283 287 289 291 292 292 289
290 291 292 293 294 296 295 294 295 298 301 305 310 313 314 314 312 309 304 303 299 294 293 295 298 297 294 291 292 292 289 286 284 280 281 280 280 281 283 287 289 290 290
289 291 292 293 294 295 296 294 293 295 298 304 309 312 313 314 311 308 304 302 296 291 291 294 297 296 296 296 296 294 292 287 283 282 279 279 280 280 279 280 283 286 287
287 288 291 293 295 295 294 291 290 292 295 300 306 310 311 311 309 306 304 301 294 290 292 296 297 298 300 303 302 300 296 291 287 284 283 281 281 281 281 281 280 278 280
283 287 289 291 292 293 292 289 287 289 293 297 303 308 310 311 309 305 303 298 291 290 293 295 297 300 301 302 302 300 297 294 293 292 290 286 287 284 282 281 282 282 281
282 284 287 289 291 292 292 291 287 288 291 295 304 306 310 309 308 306 302 296 291 291 295 298 300 302 302 303 302 300 298 297 295 296 295 292 292 287 283 282 282 282 283
277 280 284 288 291 293 293 291 288 287 289 297 304 304 307 308 307 305 302 296 292 293 294 297 300 302 303 302 301 299 300 298 298 298 297 296 294 291 288 284 282 281 284
277 278 284 288 290 294 293 291 287 286 288 297 302 304 304 306 305 304 299 296 296 296 297 300 301 302 304 304 302 300 300 299 299 298 301 299 296 297 290 286 284 284 285